Location: Asheville, NC
(35.6000°N, 82.5500°W)
Time: 01:32:35
(UTC-04:00)

CUBEBUG 2 - Pass Details

Date: 08 January 2018
Orbit: 586 x 700 km, 97.6° (Epoch: 25 April)

Event Time Altitude Azimuth Distance (km) Brightness Sun altitude
Rises 18:52:54 0° 161° (SSE) 2,803 ? -15.7°
Reaches altitude 10° 18:55:02 10° 158° (SSE) 1,913 ? -16.2°
Maximum altitude 18:59:09 68° 76° (ENE) 649 ? -17.0°
Drops below altitude 10° 19:03:24 10° 354° (N) 1,974 ? -17.8°
Sets 19:05:37 0° 352° (N) 2,901 ? -18.2°
